SCP
1 1 2 2 2 2 2 2 2 2 2 1 1 1 1 1 1 1 1 1 1 2 1 1 1 1 1 1 0 0 0 0 0 0 0 0 0 0 0 0 1 1 1
1 1 2 2 2 2 2 2 2 2 2 1 1 1 1 1 1 1 2 2 2 2 2 1 1 1 1 1 1 1 1 1 1 1 1 0 0 0 0 1 1 1 1
1 2 2 2 2 2 2 2 2 2 2 1 1 1 1 1 1 1 2 2 2 2 2 2 2 1 1 1 1 1 1 1 1 1 1 1 0 0 0 1 1 1 1
2 2 2 3 2 2 2 2 2 2 2 1 1 1 1 1 1 1 2 2 2 2 2 2 2 2 2 1 1 1 1 1 1 1 1 0 0 0 1 1 1 0 0
2 2 3 3 3 2 2 2 2 2 2 1 1 1 1 1 1 1 2 2 2 2 2 2 2 2 2 2 2 1 1 0 0 1 0 0 0 0 0 0 0 0 0
3 3 3 3 3 3 2 2 2 2 2 2 1 1 1 1 1 1 1 2 2 2 2 3 3 3 2 2 2 1 1 0 0 0 0 0 0 0 0 0 0 0 0
3 3 3 3 3 3 2 2 2 2 2 2 1 1 1 1 1 1 1 1 2 2 3 3 3 3 2 2 2 1 1 1 0 0 0 0 0 0 0 0 0 0 0
3 3 4 3 3 3 3 2 2 2 2 2 1 1 1 1 1 1 1 1 2 3 3 3 3 3 3 2 2 1 1 1 0 0 0 0 0 0 0 0 0 0 0
3 4 4 4 3 3 2 2 2 2 2 2 2 1 1 1 1 1 1 1 2 3 3 3 3 3 3 2 1 1 0 0 0 0 0 0 0 0 0 0 0 0 0
3 3 4 5 4 3 2 2 2 2 2 2 2 2 2 2 1 1 1 1 1 2 3 3 3 3 2 1 1 0 0 0 0 0 0 0 0 0 0 0 0 0 0
3 3 4 5 5 4 3 2 2 2 2 2 2 2 2 2 2 1 1 1 1 2 3 3 4 3 2 1 0 0 0 0 0 0 0 0 0 0 0 0 0 0 0
3 3 4 5 5 5 3 2 2 2 2 2 2 2 2 2 2 1 1 1 1 2 3 3 3 2 1 0 0 0 0 0 0 0 0 0 1 1 0 0 0 0 0
2 2 3 4 5 5 4 3 2 2 2 2 2 1 1 1 1 1 1 1 2 2 2 3 2 1 0 0 0 0 0 0 0 0 0 0 1 1 1 1 1 1 0
2 2 3 3 4 5 4 3 3 2 2 2 2 1 1 1 1 2 2 2 2 2 2 1 1 0 0 0 0 0 0 0 0 0 0 0 0 1 1 1 1 1 1
2 2 3 3 3 4 4 3 3 2 2 2 2 1 1 1 1 2 2 2 2 1 1 0 0 0 0 0 0 0 0 0 0 0 0 0 0 1 1 1 1 1 1
2 2 3 3 3 3 3 3 3 2 2 2 2 1 1 1 1 1 2 1 1 1 0 0 0 0 0 0 0 0 0 0 0 0 0 0 0 0 1 1 1 1 1
2 3 3 3 3 2 2 2 2 2 2 2 2 1 1 1 1 1 1 1 1 1 0 0 0 0 0 0 0 0 0 0 0 0 0 0 0 0 0 1 1 1 1
3 3 3 3 3 2 2 2 2 3 2 2 2 1 1 1 1 1 1 0 1 1 0 0 0 0 0 0 0 0 0 0 0 0 0 0 0 0 0 0 0 1 1
3 3 4 4 3 3 2 2 2 2 3 2 2 2 1 1 1 1 0 0 0 0 0 0 0 0 0 0 0 0 0 0 0 0 0 0 0 0 0 0 0 0 0
3 3 4 4 4 3 2 2 2 2 3 2 2 2 1 1 1 0 0 0 0 0 0 0 0 0 0 0 0 0 0 0 0 0 0 0 0 0 0 0 0 0 0
4 4 4 4 4 4 3 2 2 2 2 2 2 2 1 1 0 0 0 0 0 0 0 0 0 0 0 0 0 0 0 0 0 0 0 0 0 0 0 0 0 0 0
4 4 3 4 4 4 3 2 2 2 2 2 2 2 1 1 1 0 0 0 0 0 0 0 0 0 0 0 0 0 0 0 0 0 0 0 0 0 0 0 0 0 0
4 4 3 3 4 4 4 3 2 2 2 3 3 2 1 1 1 0 0 0 0 0 0 0 0 0 0 0 0 0 0 0 0 0 0 0 0 0 0 0 0 0 0
4 4 3 3 3 4 4 3 2 2 2 3 3 2 1 1 1 1 0 0 0 0 0 0 0 0 0 0 0 0 0 0 0 0 0 0 0 0 0 0 0 0 0
4 4 3 3 2 2 3 3 2 2 2 2 3 2 1 1 1 1 1 1 1 1 0 0 0 0 0 0 0 0 0 0 0 0 0 0 0 0 0 0 0 0 0
3 4 3 3 2 2 2 2 2 2 2 2 2 2 2 1 1 1 1 1 1 1 0 0 0 0 0 0 0 0 0 0 0 0 0 0 0 0 0 0 0 0 0
Wind_Speed
3 5 11 12 12 13 13 13 13 12 12 13 13 13 13 13 13 14 14 14 13 13 14 14 15 15 15 15 16 15 15 15 15 15 15 15 15 15 15 14 13 9 15
6 7 11 12 12 13 13 13 12 12 12 12 13 13 13 13 13 14 14 14 14 13 14 14 14 14 14 15 15 15 15 15 15 14 14 13 14 15 15 14 14 10 15
8 7 10 11 12 13 13 13 12 12 12 12 12 13 13 13 13 13 13 13 13 13 13 13 13 14 14 14 14 14 14 14 14 14 12 6 9 14 15 14 14 14 14
8 7 8 11 12 12 13 13 13 12 12 12 12 12 12 12 13 13 13 13 13 13 13 12 12 13 13 13 13 13 13 14 13 12 6 5 6 13 14 14 14 14 13
7 6 8 11 12 13 13 13 12 12 12 12 12 12 11 12 12 12 12 12 12 12 12 12 11 12 12 12 13 13 14 14 13 9 6 5 5 12 13 13 13 13 13
6 6 8 11 12 12 12 12 12 12 12 12 12 11 11 11 12 12 11 11 11 11 11 11 11 11 11 12 12 13 14 13 10 5 5 4 4 11 12 12 12 12 12
6 5 7 10 12 11 11 11 11 11 11 11 11 11 11 11 11 11 11 10 10 10 10 10 10 10 10 11 12 13 13 12 7 5 4 4 6 11 11 11 11 11 11
7 5 6 10 10 10 11 10 10 11 11 11 11 11 11 11 11 10 10 10 9 9 9 9 9 10 10 11 11 12 12 10 7 6 4 4 8 10 11 11 10 10 10
6 5 4 5 7 9 9 9 9 9 10 10 10 10 10 10 10 10 10 9 9 9 9 8 8 8 9 10 11 11 11 10 5 3 4 3 8 10 10 10 10 10 10
5 4 4 4 4 5 6 8 7 7 8 9 9 8 8 8 9 8 8 8 9 9 8 8 8 8 8 9 9 10 9 7 4 3 2 4 8 9 9 9 9 9 9
4 3 4 4 3 4 4 6 6 6 6 7 7 8 7 4 4 5 6 7 8 8 8 7 7 7 7 7 8 8 6 3 3 2 2 6 8 8 8 8 8 7 7
4 3 3 3 4 4 4 3 3 3 4 4 4 5 4 3 3 4 6 6 7 7 7 6 6 6 5 3 5 5 3 3 2 2 2 6 7 7 7 7 7 6 6
5 4 3 3 3 3 3 3 2 2 3 3 4 5 4 3 3 2 2 3 4 4 3 3 3 2 2 2 2 2 3 2 1 1 2 5 6 6 6 5 5 5 5
4 3 3 2 3 3 3 2 3 3 3 3 4 5 4 3 3 3 2 2 2 2 2 2 2 2 2 3 3 3 3 2 1 1 2 4 5 5 5 4 4 4 3
3 3 3 2 2 2 3 2 2 3 4 4 3 4 5 4 4 4 3 3 3 3 3 3 2 2 3 2 3 3 3 3 2 2 1 3 3 4 4 3 3 2 2
3 3 2 2 2 2 2 2 2 2 3 3 3 4 5 5 5 4 4 4 3 3 3 3 3 3 2 2 3 3 3 2 2 2 1 1 2 3 3 2 2 1 1
4 3 3 3 3 2 3 3 3 2 2 3 3 4 5 5 6 5 4 4 3 4 4 3 3 3 2 2 3 2 2 2 2 2 2 1 1 1 2 2 1 1 0
3 3 3 3 3 3 3 3 3 3 3 3 3 3 4 5 6 5 4 4 4 4 4 4 3 3 2 2 2 1 1 2 2 2 2 1 1 0 1 1 2 2 2
3 3 3 2 3 3 2 2 3 3 3 3 3 3 4 5 5 5 5 4 4 4 3 4 3 3 3 2 2 1 1 1 2 2 2 2 2 1 1 1 1 2 2
2 2 3 2 2 2 2 1 1 2 2 2 3 3 4 5 5 5 4 5 4 4 3 3 3 3 3 3 2 1 0 1 1 2 2 1 1 2 1 1 1 2 2
1 1 2 2 2 2 2 2 2 2 2 2 2 4 4 5 5 5 4 5 5 5 5 5 4 3 2 2 2 1 2 1 1 1 2 1 1 1 1 1 1 0 1
1 1 1 2 2 2 2 2 2 2 2 3 2 2 4 5 5 5 5 5 5 5 6 5 5 3 2 2 3 2 0 2 2 1 1 2 2 0 1 1 1 1 1
1 2 2 2 2 2 2 1 0 0 0 1 1 2 3 5 5 5 6 5 5 6 6 6 6 6 4 2 2 3 3 3 2 2 2 2 1 1 1 1 1 1 1
3 2 2 2 2 2 2 2 2 2 2 3 3 3 3 5 5 5 6 6 5 5 6 6 5 4 5 4 2 1 2 3 2 1 2 1 1 2 2 1 1 1 1
3 2 2 2 2 2 2 3 3 3 3 2 2 3 4 3 4 5 6 6 6 5 6 6 6 5 4 4 3 2 1 0 1 2 2 2 1 2 2 2 1 1 1
3 2 1 2 3 3 2 3 3 4 3 3 3 4 4 3 3 5 5 5 5 5 6 6 6 7 5 5 3 3 3 3 2 2 2 2 2 2 2 2 2 1 1
Wind_Direction
157 161 149 143 136 132 127 122 118 114 111 110 109 109 108 107 106 105 103 103 101 100 99 96 94 93 93 92 91 89 88 87 84 83 84 85 85 85 81 77 74 70 76
155 155 147 144 140 136 131 126 122 117 115 113 111 111 111 110 109 107 103 102 102 102 101 99 96 95 94 94 93 91 89 89 86 82 79 80 84 84 83 81 79 78 77
139 146 145 142 140 138 134 130 127 122 119 116 114 114 114 112 111 110 107 105 102 101 101 101 99 97 95 95 94 93 90 89 88 83 76 68 78 82 82 80 79 78 77
141 142 143 139 137 138 136 134 131 127 123 121 119 117 116 116 114 113 111 108 105 102 101 101 100 98 96 96 94 94 92 92 89 80 69 64 74 83 82 81 80 79 78
136 139 138 137 135 136 136 136 133 130 128 125 123 121 119 119 118 116 113 110 107 104 102 100 101 100 99 98 95 94 94 92 86 76 69 65 71 85 85 84 82 81 80
127 131 138 135 135 134 136 136 135 134 133 131 128 126 125 122 120 118 116 113 110 108 105 102 101 102 102 99 97 96 97 93 83 74 73 71 77 89 88 87 85 82 80
123 127 139 138 137 133 133 139 139 138 137 136 133 131 129 126 121 121 120 119 116 112 109 108 106 105 101 100 99 97 98 94 87 81 78 77 85 91 91 88 86 83 82
128 129 137 139 139 138 135 135 140 142 142 141 139 137 134 131 126 126 127 125 122 119 116 114 111 109 103 101 102 99 97 94 92 91 84 84 94 93 91 88 86 84 83
126 123 130 141 144 144 140 140 140 145 147 144 142 140 137 136 135 131 133 132 129 127 123 120 116 110 106 103 100 99 98 93 93 95 95 88 97 97 93 89 86 83 82
117 121 130 133 137 143 147 145 141 140 147 146 141 137 139 141 138 135 134 137 136 134 131 128 124 116 106 101 101 100 97 93 91 87 93 102 102 101 96 91 89 87 84
115 126 138 138 138 137 145 150 146 143 144 146 143 137 135 137 139 138 139 139 140 139 138 135 129 119 104 99 101 101 92 97 101 93 100 107 108 105 100 95 90 89 87
150 150 148 153 153 150 151 144 155 150 145 150 153 147 140 141 148 147 145 144 144 140 139 138 128 112 99 96 98 94 97 102 99 107 116 115 116 110 103 96 89 88 86
165 159 153 152 157 156 148 153 159 153 152 157 159 158 147 142 144 144 146 144 144 139 134 126 108 102 113 114 107 107 116 108 108 112 125 125 126 119 110 101 92 85 87
151 160 160 156 164 159 149 161 169 165 165 170 170 160 153 152 157 163 162 162 158 151 141 128 120 125 125 125 127 126 122 116 116 106 122 129 133 128 121 111 101 86 86
158 167 170 162 171 168 154 166 174 174 173 175 176 170 164 164 168 172 173 169 169 157 152 147 144 140 133 128 128 132 134 132 132 124 112 125 136 140 138 127 115 99 93
173 177 171 165 180 178 171 172 179 183 182 175 180 183 174 173 172 170 172 171 171 165 161 156 156 149 143 135 131 137 141 138 133 129 120 115 130 144 160 165 144 119 84
184 182 183 183 177 184 186 177 173 180 181 181 181 183 180 176 172 167 169 176 176 163 155 145 145 138 135 132 132 144 146 148 145 144 137 134 136 144 167 185 192 200 242
177 181 189 193 187 194 204 189 177 177 176 184 180 181 178 174 170 166 168 178 172 158 152 151 152 140 139 136 138 158 152 152 158 158 149 154 154 213 207 202 232 250 272
181 184 191 189 190 196 204 201 184 177 178 182 176 180 182 173 168 167 166 171 167 158 159 162 157 151 150 146 149 151 157 174 182 165 166 185 186 183 230 238 245 266 280
205 187 183 191 197 195 185 185 176 161 176 180 180 188 184 177 170 167 163 165 166 158 161 159 159 149 150 153 136 104 232 224 203 187 196 202 197 191 196 216 266 288 293
336 250 191 193 205 186 177 186 195 195 192 192 193 192 184 178 175 168 170 168 170 172 171 162 153 150 151 135 111 64 346 316 239 227 215 199 210 213 200 211 212 245 299
285 305 251 214 211 203 194 203 212 209 201 200 199 198 190 178 176 176 171 176 177 173 168 164 151 153 163 159 141 130 282 312 298 268 235 211 222 229 221 223 214 214 234
312 302 297 271 239 224 195 153 93 217 290 193 203 209 208 188 182 181 181 177 179 178 179 179 171 164 171 195 172 156 169 216 266 283 249 233 215 214 238 240 234 249 235
281 281 296 303 287 253 194 173 183 207 224 222 206 210 217 196 185 183 185 180 182 185 183 184 178 175 166 182 205 205 178 158 170 252 284 264 244 232 233 238 240 250 252
286 282 286 298 305 287 230 202 203 226 235 232 208 203 209 205 193 188 187 184 186 190 187 184 180 176 178 181 184 178 162 145 159 177 249 275 285 258 244 237 238 240 257
304 294 302 298 290 290 263 229 219 223 230 224 223 212 210 210 205 198 192 192 193 189 188 187 187 185 187 186 186 179 174 175 193 185 216 245 258 265 259 243 225 236 235